Location: *
(43.4500°N, 5.4767°E)
Time: 04:15:58
(UTC+00:00)

Daily predictions for brighter satellites

Satellite Brightness Start Highest point End
(mag) Time Altitude Azimuth Time Altitude Azimuth Time Altitude Azimuth
SL-16 R/B 4.5 02:02:36 18° NNE 02:02:36 18° NNE 02:04:02 10° NNE
USA 267 4.2 02:07:43 10° NE 02:11:54 44° NE 02:11:54 44° NE
COSMOS 2455 4.1 02:27:14 36° E 02:27:14 36° E 02:31:40 10° NE
Cosmos 2322 Rocket 4.0 02:34:29 23° NNE 02:34:29 23° NNE 02:36:36 10° NNE
Cosmos 2360 Rocket 3.3 02:45:05 38° NNE 02:45:05 38° NNE 02:48:29 10° NNE
IDEFIX/ARIANE 42P 4.1 02:38:40 10° NNE 02:43:17 31° E 02:44:01 30° ESE
USA 234 3.3 02:41:07 10° ESE 02:47:37 71° NE 02:47:40 70° NNE
Cosmos 1844 Rocket 3.9 03:07:01 31° SSE 03:07:01 31° SSE 03:09:50 10° SSE
ATLAS 3B R/B 4.5 02:58:55 10° NNW 03:04:20 25° NNE 03:09:49 10° E
Cosmos 2251 Rocket 4.0 03:04:47 58° E 03:04:47 58° E 03:09:39 10° NNE
Cosmos 2098 Rocket 4.2 03:09:04 73° SW 03:09:51 82° W 03:17:23 10° N
Cosmos 1709 Rocket 4.2 03:09:42 39° SSE 03:12:04 68° E 03:18:22 10° NNE
CENTAUR R/B 4.3 03:11:54 10° NNW 03:19:05 38° NE 03:26:55 10° ESE
Cosmos 2333 Rocket 2.8 03:17:32 40° SSE 03:19:13 54° ESE 03:24:45 10° NNE
ATLAS 2AS CENTAUR R/B 4.0 03:13:54 14° S 03:20:19 44° ESE 03:27:50 10° NE
Cosmos 2278 Rocket 4.0 03:15:57 10° N 03:20:54 29° NE 03:25:47 10° ESE
Cosmos 1844 3.6 03:23:59 59° NNW 03:25:11 89° WSW 03:30:58 10° SSE
USA 238 DEB 4.1 03:19:19 16° NNW 03:25:18 68° NE 03:32:41 10° SE
USA 238 4.1 03:19:24 16° NNW 03:25:24 67° NE 03:32:47 10° SE
Meteor 2-21 Rocket 4.3 03:30:55 66° WSW 03:31:27 70° W 03:37:40 10° N
SL-08 ROCKET BODY 4.4 03:33:01 59° WNW 03:33:01 59° WNW 03:38:27 10° N
Cosmos 2333 4.0 03:34:26 72° WSW 03:34:56 80° WNW 03:40:37 10° NNE
Meteor 2-14 Rocket 4.5 03:37:09 55° WNW 03:37:09 55° WNW 03:43:02 10° N
ADEOS 3.4 03:31:48 10° NNE 03:37:03 89° WNW 03:38:16 55° SSW
SL-16 R/B 4.0 03:44:29 17° NNW 03:44:29 17° NNW 03:47:03 10° N
BREEZE-M R/B 3.6 03:42:48 57° WNW 03:43:38 66° NNW 03:52:40 10° ENE
Cosmos 2322 3.7 03:44:04 56° WNW 03:44:23 57° WNW 03:50:03 10° NNE
Cosmos 1378 4.2 03:46:03 36° N 03:46:03 36° N 03:48:23 10° N
ADEOS II 4.2 03:41:58 10° NNW 03:42:56 14° NNW 03:42:56 14° NNW
Celestis-02/Orion 38 4.5 03:40:54 10° SSE 03:46:03 89° ENE 03:51:22 10° NNW
NOSS 3-2 (A) 4.1 03:44:37 10° NW 03:52:13 83° NE 04:00:40 10° SE
USA 32 4.5 03:47:57 10° S 03:53:05 62° E 03:58:16 10° NNE
Cosmos 2181 Rocket 3.9 03:47:35 10° N 03:53:59 81° W 04:00:15 10° S
H-2A R/B 2.4 03:50:53 10° NNE 03:55:01 89° ESE 03:56:28 41° SSW
Cosmos 2219 Rocket 2.0 03:53:56 37° SW 03:56:14 79° WNW 04:01:51 10° NNE
NOSS 2-2 (E) 3.4 03:56:51 59° NNW 03:56:51 59° NNW 04:00:40 10° NNE
USA 267 4.0 03:50:57 10° NE 03:56:53 38° NNW 03:59:15 29° WNW
GENESIS II 4.4 03:56:09 54° S 03:56:56 72° ESE 04:01:01 10° NE
Meteor 2-16 Rocket 4.5 03:55:16 40° SW 03:57:04 52° WNW 04:03:01 10° N
NOSS 0 Rocket 4.5 03:53:02 10° S 03:59:01 58° ESE 04:05:05 10° NNE
COSMOS 2441 4.3 03:54:07 10° NNE 03:59:04 88° ESE 04:03:57 10° SSW
Cosmos 2237 Rocket 3.2 03:56:21 10° S 04:01:44 46° ESE 04:07:09 10° NE
PSLV R/B 4.0 04:01:16 10° N 04:04:42 40° NW 04:04:42 40° NW
ERBS 3.1 04:06:24 37° S 04:07:14 47° SE 04:10:30 10° ENE
Cosmos 1025 Rocket 2.8 04:05:35 20° SSW 04:08:26 77° W 04:12:44 10° N
Meteor 1-31 Rocket 3.1 04:06:10 10° NNE 04:09:58 62° ESE 04:13:42 10° S
COSMOS 2428 2.7 04:07:23 30° SW 04:10:07 62° WNW 04:15:46 10° NNE
COSMOS 2455 3.4 04:10:25 33° W 04:12:02 39° NW 04:17:41 10° NNE
NOSS 3-2 (C) 4.2 04:06:31 10° NW 04:14:07 79° NE 04:22:35 10° SE
Cosmos 2322 Rocket 4.1 04:16:19 13° NW 04:16:19 13° NW 04:18:37 10° NNW
Cosmos 1980 4.0 04:12:30 10° SSW 04:18:05 68° ESE 04:23:43 10° NNE
Cosmos 1470 2.8 04:14:33 10° N 04:18:30 79° E 04:22:23 10° SSE
CZ-2C R/B 2.5 04:13:23 10° NNE 04:18:36 86° WNW 04:23:46 10° SSW
Cosmos 389 Rocket 3.3 04:17:01 10° S 04:20:19 49° E 04:23:39 10° NNE
Cosmos 1536 Rocket 3.7 04:18:24 27° SW 04:20:24 48° WNW 04:24:37 10° N
Cosmos 1842 3.7 04:21:09 39° W 04:21:25 39° WNW 04:25:10 10° N
Cosmos 921 Rocket 2.8 04:17:06 10° NNW 04:21:26 82° WSW 04:25:40 10° SSE
Cosmos 1733 3.5 04:17:52 10° NNW 04:21:32 41° W 04:25:09 10° SSW
Meteor PRIRODA 4.4 04:18:51 10° NNE 04:22:32 55° E 04:26:13 10° S
IDEFIX/ARIANE 42P 3.2 04:18:09 10° N 04:22:54 35° WNW 04:24:49 27° WSW
Cosmos 1707 3.2 04:19:44 10° S 04:23:35 63° E 04:27:28 10° NNE
Cosmos 2360 Rocket 3.6 04:26:53 18° NW 04:27:32 19° NW 04:31:25 10° N
Cosmos 1484 Rocket 4.0 04:23:59 10° NNE 04:27:36 42° E 04:31:14 10° S
NOSS 3-4 (A) 3.6 04:24:29 10° SSW 04:30:27 74° ESE 04:36:46 10° NE
NOSS 3-4 (C) 3.6 04:24:34 10° SSW 04:30:33 73° ESE 04:36:52 10° NE
USA 234 3.8 04:24:58 10° SSE 04:30:54 36° SW 04:35:02 18° WNW
NOSS 2-2 (D) 4.0 04:33:18 28° W 04:34:23 34° NW 04:38:13 10° NNE
GP-B 4.1 04:30:53 10° SSE 04:35:10 50° E 04:39:28 10° N
PAYLOAD A 4.1 04:33:16 10° N 04:37:51 45° WNW 04:42:32 10° SW
Cosmos 1140 Rocket 4.0 04:32:52 10° S 04:37:59 64° ESE 04:43:07 10° NNE
ALOS 3.8 04:39:01 10° NNE 04:43:25 39° E 04:47:46 10° SSE
Fregat R/B Cluster 11 4.3 04:44:02 15° SW 04:46:27 67° NW 04:54:49 10° NE
CZ-4B R/B 3.0 04:42:28 10° N 04:46:28 50° WNW 04:50:13 10° SSW
Cosmos 1844 Rocket 4.3 04:48:52 13° WSW 04:48:52 13° WSW 04:50:23 10° SW
Cosmos 614 Rocket 3.9 04:42:15 10° SSW 04:47:28 73° WNW 04:52:42 10° NNE
Cosmos 2154 Rocket 4.0 04:41:31 10° S 04:47:42 88° E 04:53:56 10° N
Meteor 1-16 Rocket 4.4 04:45:20 10° N 04:50:39 69° E 04:55:58 10° SSE
Cosmos 2327 Rocket 4.4 04:45:27 10° SSW 04:51:41 71° W 04:57:53 10° N
SL-16 R/B 3.4 04:47:19 10° S 04:52:40 45° ESE 04:58:02 10° NE
Cosmos 1606 Rocket 3.4 04:49:54 10° N 04:54:14 83° W 04:58:32 10° S
Cosmos 1356 4.2 04:52:16 10° N 04:55:40 55° ENE 04:59:03 10° SSE
ATLAS 3B R/B 2.7 04:49:10 10° NW 04:55:54 89° NE 05:02:48 10° SE
Cosmos 2184 Rocket 4.2 04:51:59 10° SSW 04:57:56 49° WNW 05:04:01 10° N
Okean 1-7 Rocket 3.8 04:53:54 10° S 04:58:18 75° E 05:02:46 10° NNE
Cosmos 292 Rocket 4.1 04:54:01 10° NW 04:58:31 41° WSW 05:03:00 10° S
Cosmos 1610 Rocket 4.5 04:52:50 10° SSW 04:59:03 70° W 05:05:24 10° N
Cosmos 2297 4.5 04:56:38 10° NNW 05:02:19 56° ENE 05:07:56 10° SE
Cosmos 1674 4.3 04:59:43 10° SSE 05:03:11 38° E 05:06:40 10° NNE
Cosmos 44 3.0 04:58:57 10° NW 05:03:17 66° WSW 05:07:32 10° SSE
Cosmos 2333 Rocket 3.2 04:59:36 12° WSW 05:03:49 26° NW 05:08:34 10° N
Cosmos 2278 Rocket 2.5 04:59:45 10° NW 05:05:10 46° WSW 05:10:32 10° S
Cosmos 1726 2.7 05:01:57 10° N 05:05:34 60° E 05:09:10 10° SSE
OE (NEXTSAT) 4.5 05:03:03 14° WNW 05:05:59 65° SSW 05:09:29 10° ESE
FENGYUN 3A 4.2 05:01:12 10° NNE 05:06:37 65° E 05:12:00 10° S
Helios 1A Rocket 3.1 05:02:47 10° NNE 05:06:58 81° ESE 05:11:06 10° SSW
Cosmos 2341 Rocket 4.3 05:02:17 10° S 05:08:32 77° E 05:14:46 10° N
CENTAUR R/B 3.2 05:02:25 10° NW 05:10:30 73° WSW 05:19:10 10° SSE
Nadezhda 3 Rocket 4.0 05:04:16 10° NNW 05:10:36 65° W 05:16:51 10° S
ATLAS 2AS CENTAUR R/B 3.3 05:03:30 10° WSW 05:11:18 53° NW 05:19:08 10° NNE
PSLV R/B 4.1 05:08:16 10° N 05:11:48 40° WNW 05:15:16 10° SW
Cosmos 1953 2.7 05:08:33 10° NNW 05:12:20 40° W 05:16:05 10° SSW
Cosmos 1437 Rocket 3.1 05:08:49 10° S 05:12:35 67° E 05:16:21 10° NNE
Cosmos 676 Rocket 4.0 05:08:14 10° SSW 05:13:33 80° WNW 05:18:50 10° NNE
Cosmos 1023 Rocket 4.5 05:08:27 10° SSW 05:13:35 61° WNW 05:18:42 10° NNE
MOS 1-B 4.4 05:09:47 10° N 05:15:33 65° WNW 05:21:17 10° SSW
COSMO-SKYMED 1 2.8 05:12:48 10° S 05:17:00 50° W 05:21:15 10° NNW
Meteor 1-4 Rocket 3.1 05:19:52 10° SW 05:23:05 33° WNW 05:26:17 10° N
Cosmos 1190 Rocket 4.5 05:19:16 10° SW 05:24:15 40° WNW 05:29:14 10° N
SeaSat 1 3.2 05:20:08 10° NNE 05:25:01 60° ESE 05:29:53 10° SSW
METEOR-M 4.1 05:19:59 10° NNE 05:25:22 82° WNW 05:30:41 10° SSW
USA 116 3.7 05:22:07 10° S 05:26:06 57° WSW 05:29:41 10° NNW
